JS2WAD-13 Weather Reports


time (UTC)temp
C
wind
direction
speed
KPH
gust
KPH
rain 1hr
cm
rain 24hr
cm
rain mn
cm
humidity
%
barometer
mb
20260504150126 14 43 8.0 17.7 0.00 0.03 0.03 64 905.9
20260504141126 14 39 11.3 24.1 0.00 0.03 0.03 65 905.5
20260504140626 14 39 11.3 20.9 0.00 0.03 0.03 62 905.6
20260504140126 14 33 11.3 20.9 0.00 0.03 0.03 63 905.6
20260504130626 15 23 12.9 22.5 0.00 0.03 0.03 67 904.9
20260504130126 15 4 12.9 24.1 0.00 0.03 0.03 63 904.9
20260504120126 15 28 11.3 22.5 0.00 0.03 0.03 66 904.2
20260504110626 15 35 11.3 27.4 0.00 0.03 0.03 65 903.1
20260504110126 16 36 9.7 27.4 0.00 0.03 0.03 67 903.1
20260504100126 16 16 12.9 24.1 0.00 0.03 0.03 64 901.8
20260504090126 16 35 11.3 20.9 0.00 0.05 0.03 69 900.8
20260504081626 16 32 9.7 24.1 0.03 0.05 0.03 78 900.3
20260504081126 16 34 11.3 14.5 0.03 0.05 0.03 76 900.3
20260504080626 16 22 9.7 19.3 0.03 0.05 0.03 77 900.3
20260504080126 16 41 11.3 19.3 0.03 0.05 0.03 77 900.3
20260504070127 19 34 19.3 40.2 0.00 0.03 0.00 58 898.6
20260504060127 21 347 14.5 30.6 0.00 0.05 0.00 55 897.1
20260504050627 21 16 12.9 27.4 0.00 0.05 0.00 56 896.5
20260504050127 21 316 12.9 25.7 0.00 0.05 0.00 58 896.4
20260504045627 21 21 12.9 32.2 0.00 0.05 0.00 61 896.3
20260504045127 21 14 11.3 27.4 0.00 0.05 0.00 59 896.3
20260504044627 22 28 11.3 20.9 0.00 0.05 0.00 59 896.2
20260504044127 22 38 12.9 30.6 0.00 0.05 0.00 58 896.0
20260504043627 22 39 9.7 25.7 0.00 0.05 0.00 53 896.1
20260504043127 22 15 8.0 17.7 0.00 0.05 0.00 41 895.9
20260504042627 23 270 8.0 19.3 0.00 0.05 0.00 42 895.9
20260504042127 23 185 8.0 19.3 0.00 0.05 0.00 42 895.7
20260504041627 23 359 8.0 19.3 0.00 0.05 0.00 41 895.8
20260504041127 22 359 8.0 22.5 0.00 0.05 0.00 42 895.8
20260504040627 22 165 8.0 30.6 0.00 0.05 0.00 44 895.6
20260504040127 22 156 9.7 20.9 0.00 0.05 0.00 45 895.7
20260504035627 22 35 12.9 27.4 0.00 0.05 0.00 44 895.5
20260504035127 22 149 11.3 30.6 0.00 0.05 0.00 44 895.9
20260504034627 22 359 4.8 16.1 0.00 0.05 0.00 48 895.7
20260504034127 22 334 4.8 14.5 0.00 0.05 0.00 51 895.7
20260504033627 22 168 4.8 14.5 0.00 0.05 0.00 50 895.7
20260504033127 22 42 6.4 6.4 0.00 0.05 0.00 52 895.7
20260504032627 22 161 8.0 19.3 0.00 0.05 0.00 50 895.7
20260504032127 22 214 8.0 24.1 0.00 0.05 0.00 51 895.9
20260504031627 22 214 8.0 17.7 0.00 0.05 0.00 51 895.9
20260504031127 22 166 8.0 17.7 0.00 0.05 0.00 52 895.8
20260504030627 22 20 8.0 16.1 0.00 0.05 0.00 51 895.8
20260504030127 23 267 8.0 22.5 0.00 0.05 0.00 49 895.7
20260504025627 23 359 8.0 20.9 0.00 0.05 0.00 49 895.6
20260504025127 23 4 8.0 22.5 0.00 0.05 0.00 50 895.7
20260504024627 23 206 8.0 30.6 0.00 0.05 0.00 51 895.7
20260504024127 22 359 8.0 16.1 0.00 0.05 0.00 53 895.8
20260504023627 22 187 8.0 22.5 0.00 0.05 0.00 55 895.5
20260504023127 22 133 4.8 16.1 0.00 0.05 0.00 60 895.5
20260504022627 22 209 6.4 16.1 0.00 0.05 0.00 58 895.7
20260504022127 22 193 8.0 20.9 0.00 0.05 0.00 58 895.7
20260504021627 22 359 6.4 16.1 0.00 0.05 0.00 61 895.8
20260504021127 22 349 6.4 17.7 0.00 0.05 0.00 60 895.5
20260504020627 22 359 8.0 17.7 0.00 0.05 0.00 57 895.6
20260504020127 22 233 6.4 16.1 0.00 0.05 0.00 61 895.6
20260504015627 22 345 8.0 25.7 0.00 0.05 0.00 63 895.7
20260504015127 22 359 8.0 20.9 0.00 0.05 0.00 62 895.6
20260504014627 22 359 8.0 17.7 0.00 0.05 0.00 71 895.4
20260504014127 22 4 8.0 24.1 0.00 0.05 0.00 65 895.6
20260504013628 21 168 6.4 17.7 0.00 0.05 0.00 65 895.8
20260504013127 21 249 4.8 14.5 0.00 0.05 0.00 69 895.9
20260504012627 21 173 4.8 11.3 0.00 0.05 0.00 67 895.7
20260504012127 21 172 6.4 14.5 0.00 0.05 0.00 69 895.8
20260504011627 21 195 4.8 16.1 0.00 0.05 0.00 69 895.7
20260504011127 21 4 4.8 17.7 0.00 0.05 0.00 75 895.8
20260504010627 20 208 3.2 16.1 0.00 0.05 0.00 75 895.7
20260504010127 20 236 3.2 8.0 0.00 0.05 0.00 77 895.8
20260504005627 20 37 6.4 8.0 0.00 0.05 0.00 76 895.8
20260504005127 20 37 6.4 14.5 0.00 0.05 0.00 78 895.9
20260504004627 20 15 3.2 14.5 0.00 0.05 0.00 76 896.0
20260504004128 20 33 3.2 11.3 0.00 0.05 0.00 78 895.7
20260504003628 20 295 8.0 14.5 0.00 0.05 0.00 77 896.0
20260504003127 20 45 8.0 16.1 0.00 0.05 0.00 81 896.0
20260504002628 20 26 4.8 14.5 0.00 0.05 0.00 81 895.9
20260504002128 20 43 6.4 12.9 0.00 0.05 0.00 83 896.0
20260504001628 20 47 6.4 12.9 0.00 0.05 0.00 89 895.5
20260504001128 20 33 8.0 16.1 0.00 0.05 0.00 86 895.7
20260504000628 19 30 6.4 14.5 0.00 0.05 0.00 89 895.5
20260504000128 19 25 4.8 11.3 0.00 0.05 0.00 87 895.6
20260503235628 18 35 4.8 12.9 0.00 0.05 0.00 85 895.5
20260503235128 18 22 4.8 8.0 0.00 0.05 0.00 88 895.5
20260503234628 18 39 6.4 14.5 0.00 0.05 0.00 90 895.5
20260503234128 18 45 4.8 12.9 0.00 0.05 0.00 90 895.7
20260503233628 18 29 3.2 12.9 0.00 0.05 0.00 90 895.7
20260503233128 18 42 3.2 6.4 0.00 0.05 0.00 91 895.7
20260503232628 18 40 1.6 8.0 0.00 0.05 0.00 93 895.5
20260503232128 18 41 0.0 3.2 0.00 0.05 0.00 93 895.6
20260503231628 18 41 0.0 4.8 0.00 0.05 0.00 94 895.6
20260503231128 18 45 0.0 1.6 0.00 0.05 0.00 93 895.6
20260503230628 18 44 0.0 1.6 0.00 0.05 0.00 94 895.6
20260503230128 18 44 0.0 1.6 0.00 0.05 0.00 95 895.4
20260503225628 18 44 0.0 1.6 0.00 0.05 0.00 95 895.4
20260503225128 18 44 0.0 3.2 0.00 0.05 0.00 95 895.5
20260503224628 18 44 0.0 0.0 0.00 0.05 0.00 95 895.3
20260503224128 18 45 0.0 0.0 0.00 0.05 0.00 95 895.3
20260503223628 18 45 0.0 3.2 0.00 0.05 0.00 95 895.4
20260503223128 18 45 0.0 4.8 0.00 0.05 0.00 95 895.3
20260503222628 18 46 0.0 3.2 0.00 0.05 0.00 95 895.2
20260503222128 18 46 0.0 4.8 0.00 0.05 0.00 95 895.0
20260503221628 17 47 1.6 3.2 0.00 0.05 0.00 95 894.8
20260503221128 17 48 3.2 4.8 0.00 0.05 0.00 95 894.8
20260503220628 17 44 3.2 8.0 0.00 0.05 0.00 95 894.6
20260503220128 17 39 4.8 8.0 0.00 0.05 0.00 95 894.5
20260503215628 17 38 6.4 12.9 0.00 0.05 0.00 95 894.6
20260503215128 17 29 6.4 11.3 0.00 0.05 0.00 95 894.6
20260503214628 17 39 6.4 14.5 0.00 0.05 0.00 95 894.6
20260503214128 18 33 4.8 12.9 0.00 0.05 0.00 95 894.4
20260503213628 18 38 1.6 9.7 0.00 0.05 0.00 95 894.3
20260503213128 18 42 0.0 3.2 0.00 0.05 0.00 96 894.3
20260503212628 18 43 0.0 3.2 0.00 0.05 0.00 96 894.2
20260503212128 18 40 0.0 1.6 0.00 0.05 0.00 96 894.3
20260503211628 18 41 1.6 4.8 0.00 0.05 0.00 96 894.4
20260503211128 18 37 1.6 6.4 0.00 0.05 0.00 96 894.2
20260503210628 18 41 3.2 8.0 0.00 0.05 0.00 96 894.1
20260503210128 18 43 6.4 6.4 0.00 0.05 0.00 95 894.0
20260503205628 18 26 6.4 12.9 0.00 0.05 0.00 95 894.0
20260503205128 18 41 4.8 12.9 0.00 0.05 0.00 95 893.7
20260503204628 18 41 1.6 6.4 0.00 0.05 0.00 95 893.6
20260503204128 18 33 3.2 6.4 0.00 0.05 0.00 95 893.6
20260503203628 18 41 6.4 8.0 0.00 0.05 0.00 95 893.6
20260503203128 18 47 4.8 14.5 0.00 0.05 0.00 95 893.6
20260503202628 18 43 4.8 9.7 0.00 0.05 0.00 95 893.5
20260503202128 18 43 4.8 9.7 0.00 0.05 0.00 95 893.4
20260503201628 19 28 4.8 9.7 0.00 0.05 0.00 96 893.5
20260503201128 19 39 1.6 8.0 0.00 0.05 0.00 95 893.6
20260503200628 19 10 1.6 4.8 0.00 0.05 0.00 96 893.4
20260503200128 19 170 0.0 6.4 0.00 0.05 0.00 95 893.3
20260503195628 19 168 0.0 1.6 0.00 0.05 0.00 95 893.2
20260503195128 19 165 1.6 6.4 0.00 0.05 0.00 95 893.3
20260503194628 19 166 1.6 8.0 0.00 0.05 0.00 96 893.2
20260503194128 19 167 1.6 1.6 0.00 0.05 0.00 96 893.0
20260503193628 19 168 1.6 6.4 0.00 0.05 0.00 96 892.6
20260503193128 19 170 0.0 3.2 0.00 0.05 0.00 96 892.6
20260503192628 19 166 1.6 3.2 0.00 0.05 0.00 95 892.5
20260503192128 19 172 1.6 8.0 0.00 0.05 0.00 95 892.5
20260503191628 19 212 0.0 3.2 0.00 0.05 0.00 96 892.4
20260503191128 20 210 0.0 0.0 0.00 0.05 0.00 95 892.2
20260503190628 20 359 0.0 1.6 0.00 0.05 0.00 95 892.2
20260503190128 20 214 1.6 3.2 0.00 0.05 0.00 95 892.1
20260503185628 20 209 1.6 4.8 0.00 0.05 0.00 95 892.3
20260503185128 20 359 1.6 8.0 0.00 0.05 0.00 96 892.2
20260503184628 20 246 1.6 3.2 0.00 0.05 0.00 96 892.3
20260503184128 20 186 1.6 4.8 0.00 0.05 0.00 96 892.0
20260503183628 20 171 1.6 3.2 0.00 0.05 0.00 96 892.1
20260503183128 20 359 1.6 1.6 0.00 0.05 0.00 96 891.9
20260503182628 20 169 1.6 8.0 0.00 0.05 0.00 96 891.8
20260503182128 20 195 1.6 4.8 0.00 0.05 0.00 95 891.7
20260503181628 20 175 1.6 9.7 0.00 0.05 0.00 95 891.8
20260503181128 20 193 1.6 9.7 0.00 0.05 0.00 95 891.7
20260503180628 20 359 3.2 6.4 0.00 0.05 0.00 95 891.5
20260503180128 20 154 1.6 9.7 0.00 0.05 0.00 95 891.4
20260503175628 20 181 1.6 4.8 0.00 0.05 0.00 95 891.2
20260503175128 20 208 3.2 8.0 0.00 0.05 0.00 95 891.6
20260503174628 20 160 3.2 12.9 0.00 0.05 0.00 95 891.4
20260503174128 20 153 4.8 9.7 0.00 0.05 0.00 95 891.3
20260503173628 20 154 4.8 11.3 0.00 0.05 0.00 95 891.3
20260503173128 20 155 3.2 11.3 0.00 0.05 0.00 95 891.2
20260503172628 20 359 4.8 11.3 0.00 0.05 0.00 95 891.3
20260503172128 20 143 4.8 12.9 0.00 0.05 0.00 95 891.3
20260503171628 20 163 4.8 9.7 0.00 0.05 0.00 95 891.4
20260503171128 20 170 6.4 14.5 0.00 0.05 0.00 95 891.5
20260503170628 20 154 6.4 14.5 0.00 0.05 0.00 95 891.4
20260503170128 20 154 6.4 12.9 0.00 0.05 0.00 95 891.4
20260503160129 20 160 8.0 22.5 0.00 0.05 0.05 94 892.4
20260503150629 19 145 6.4 16.1 0.00 0.05 0.05 90 893.9